| time (UTC) | temp F | wind direction | speed MPH | gust MPH | rain 1hr in | rain 24hr in | rain mn in | humidity % | barometer mb |
| 20260510192009 | 67 | 5 | 1.0 | 6.0 | 0.00 | 0.21 | 0.21 | 48 | 1021.7 |
| 20260510191521 | 67 | 59 | 3.0 | 7.0 | 0.00 | 0.21 | 0.21 | 41 | 1021.8 |
| 20260510191002 | 66 | 65 | 2.0 | 7.0 | 0.00 | 0.21 | 0.21 | 45 | 1021.9 |
| 20260510190507 | 65 | 78 | 2.0 | 9.0 | 0.00 | 0.21 | 0.21 | 43 | 1022.0 |
| 20260510190006 | 65 | 90 | 3.0 | 9.0 | 0.00 | 0.21 | 0.21 | 43 | 1022.0 |
| 20260510185506 | 65 | 82 | 2.0 | 9.0 | 0.00 | 0.21 | 0.21 | 46 | 1021.8 |
| 20260510185006 | 64 | 65 | 3.0 | 9.0 | 0.00 | 0.21 | 0.21 | 45 | 1021.8 |
| 20260510184510 | 64 | 44 | 3.0 | 9.0 | 0.00 | 0.21 | 0.21 | 44 | 1021.8 |
| 20260510184003 | 63 | 46 | 4.0 | 9.0 | 0.00 | 0.21 | 0.21 | 46 | 1021.9 |
| 20260510183508 | 63 | 34 | 3.0 | 10.0 | 0.00 | 0.21 | 0.21 | 48 | 1021.8 |
| 20260510183016 | 62 | 75 | 2.0 | 10.0 | 0.00 | 0.21 | 0.21 | 48 | 1022.0 |
| 20260510182510 | 62 | 92 | 3.0 | 10.0 | 0.00 | 0.21 | 0.21 | 51 | 1022.0 |
| 20260510182008 | 61 | 85 | 3.0 | 8.0 | 0.00 | 0.21 | 0.21 | 50 | 1021.9 |
| 20260510181521 | 61 | 90 | 2.0 | 6.0 | 0.00 | 0.21 | 0.21 | 53 | 1021.7 |
| 20260510181007 | 61 | 75 | 1.0 | 9.0 | 0.00 | 0.21 | 0.21 | 57 | 1021.6 |
| 20260510180507 | 60 | 68 | 3.0 | 9.0 | 0.00 | 0.21 | 0.21 | 56 | 1021.6 |
| 20260510180022 | 60 | 69 | 1.0 | 6.0 | 0.00 | 0.21 | 0.21 | 59 | 1021.5 |
| 20260510175504 | 59 | 65 | 2.0 | 6.0 | 0.00 | 0.21 | 0.21 | 59 | 1021.6 |
| 20260510175003 | 59 | 67 | 2.0 | 7.0 | 0.00 | 0.21 | 0.21 | 57 | 1021.7 |
| 20260510174509 | 59 | 86 | 2.0 | 7.0 | 0.01 | 0.21 | 0.21 | 59 | 1021.9 |
| 20260510174007 | 58 | 88 | 1.0 | 4.0 | 0.01 | 0.21 | 0.21 | 65 | 1022.0 |
| 20260510173503 | 58 | 88 | 2.0 | 7.0 | 0.01 | 0.21 | 0.21 | 62 | 1022.3 |
| 20260510173012 | 58 | 82 | 1.0 | 7.0 | 0.01 | 0.21 | 0.21 | 64 | 1022.4 |
| 20260510172507 | 57 | 55 | 2.0 | 6.0 | 0.01 | 0.21 | 0.21 | 68 | 1022.3 |
| 20260510172010 | 57 | 72 | 0.0 | 4.0 | 0.01 | 0.21 | 0.21 | 73 | 1022.1 |
| 20260510171519 | 56 | 80 | 1.0 | 4.0 | 0.01 | 0.21 | 0.21 | 74 | 1022.0 |
| 20260510171006 | 55 | 19 | 1.0 | 6.0 | 0.01 | 0.21 | 0.21 | 76 | 1022.0 |
| 20260510170506 | 54 | 63 | 0.0 | 6.0 | 0.01 | 0.21 | 0.21 | 75 | 1021.8 |
| 20260510170022 | 54 | 69 | 1.0 | 4.0 | 0.01 | 0.21 | 0.21 | 77 | 1021.8 |
| 20260510165508 | 54 | 93 | 0.0 | 4.0 | 0.01 | 0.21 | 0.21 | 80 | 1021.8 |
| 20260510165007 | 53 | 77 | 0.0 | 4.0 | 0.01 | 0.21 | 0.21 | 79 | 1021.9 |
| 20260510164535 | 53 | 82 | 1.0 | 5.0 | 0.00 | 0.20 | 0.20 | 78 | 1022.0 |
| 20260510164007 | 53 | 67 | 1.0 | 5.0 | 0.00 | 0.20 | 0.20 | 78 | 1021.9 |
| 20260510163503 | 53 | 52 | 1.0 | 4.0 | 0.01 | 0.20 | 0.20 | 78 | 1021.8 |
| 20260510163012 | 53 | 72 | 1.0 | 5.0 | 0.01 | 0.20 | 0.20 | 80 | 1021.9 |
| 20260510162503 | 53 | 62 | 1.0 | 5.0 | 0.01 | 0.20 | 0.20 | 81 | 1021.9 |
| 20260510162003 | 52 | 352 | 0.0 | 6.0 | 0.02 | 0.20 | 0.20 | 83 | 1021.9 |
| 20260510161516 | 52 | 59 | 2.0 | 6.0 | 0.02 | 0.20 | 0.20 | 83 | 1021.8 |
| 20260510161008 | 52 | 77 | 1.0 | 5.0 | 0.02 | 0.20 | 0.20 | 86 | 1021.8 |
| 20260510160507 | 52 | 360 | 0.0 | 2.0 | 0.02 | 0.20 | 0.20 | 88 | 1021.7 |
| 20260510160022 | 52 | 88 | 0.0 | 3.0 | 0.02 | 0.20 | 0.20 | 89 | 1021.2 |
| 20260510155512 | 52 | 88 | 1.0 | 3.0 | 0.02 | 0.20 | 0.20 | 88 | 1021.1 |
| 20260510155007 | 52 | 88 | 0.0 | 0.0 | 0.02 | 0.20 | 0.20 | 89 | 1021.0 |
| 20260510154531 | 52 | 88 | 0.0 | 4.0 | 0.02 | 0.20 | 0.20 | 89 | 1021.1 |
| 20260510154008 | 52 | 88 | 0.0 | 4.0 | 0.02 | 0.20 | 0.20 | 88 | 1021.1 |
| 20260510153512 | 52 | 88 | 0.0 | 4.0 | 0.01 | 0.19 | 0.19 | 88 | 1021.4 |
| 20260510153026 | 52 | 67 | 0.0 | 2.0 | 0.01 | 0.19 | 0.19 | 87 | 1021.4 |
| 20260510152505 | 52 | 67 | 0.0 | 1.0 | 0.01 | 0.19 | 0.19 | 87 | 1021.4 |
| 20260510152002 | 52 | 67 | 0.0 | 1.0 | 0.01 | 0.18 | 0.18 | 88 | 1021.5 |
| 20260510151511 | 52 | 67 | 0.0 | 1.0 | 0.01 | 0.18 | 0.18 | 87 | 1021.5 |
| 20260510151007 | 52 | 67 | 0.0 | 2.0 | 0.01 | 0.18 | 0.18 | 86 | 1021.3 |
| 20260510150506 | 52 | 67 | 0.0 | 3.0 | 0.01 | 0.18 | 0.18 | 85 | 1021.2 |
| 20260510150021 | 52 | 66 | 0.0 | 3.0 | 0.02 | 0.18 | 0.18 | 85 | 1021.4 |
| 20260510145507 | 52 | 62 | 1.0 | 3.0 | 0.02 | 0.18 | 0.18 | 85 | 1021.4 |
| 20260510145007 | 52 | 52 | 0.0 | 4.0 | 0.03 | 0.18 | 0.18 | 86 | 1021.2 |
| 20260510144533 | 52 | 67 | 1.0 | 4.0 | 0.04 | 0.18 | 0.18 | 86 | 1021.2 |
| 20260510144008 | 52 | 87 | 1.0 | 5.0 | 0.05 | 0.18 | 0.18 | 86 | 1021.3 |
| 20260510143506 | 52 | 61 | 2.0 | 5.0 | 0.06 | 0.18 | 0.18 | 85 | 1021.4 |
| 20260510143028 | 52 | 69 | 0.0 | 4.0 | 0.07 | 0.18 | 0.18 | 87 | 1021.4 |
| 20260510142513 | 52 | 76 | 2.0 | 5.0 | 0.08 | 0.18 | 0.18 | 86 | 1021.4 |
| 20260510142013 | 52 | 66 | 1.0 | 5.0 | 0.09 | 0.17 | 0.17 | 87 | 1021.5 |
| 20260510141526 | 52 | 78 | 2.0 | 5.0 | 0.11 | 0.17 | 0.17 | 88 | 1021.5 |
| 20260510141005 | 52 | 84 | 1.0 | 4.0 | 0.13 | 0.17 | 0.17 | 88 | 1021.2 |
| 20260510140503 | 52 | 84 | 0.0 | 3.0 | 0.15 | 0.17 | 0.17 | 87 | 1021.1 |
| 20260510140014 | 53 | 84 | 0.0 | 3.0 | 0.15 | 0.16 | 0.16 | 87 | 1021.1 |
| 20260510135506 | 53 | 84 | 0.0 | 2.0 | 0.16 | 0.16 | 0.16 | 87 | 1021.3 |
| 20260510135007 | 53 | 84 | 0.0 | 0.0 | 0.15 | 0.15 | 0.15 | 87 | 1021.5 |
| 20260510134520 | 53 | 84 | 0.0 | 0.0 | 0.14 | 0.14 | 0.14 | 86 | 1021.7 |
| 20260510134005 | 53 | 84 | 0.0 | 0.0 | 0.13 | 0.13 | 0.13 | 86 | 1021.6 |
| 20260510133506 | 53 | 84 | 0.0 | 0.0 | 0.12 | 0.12 | 0.12 | 85 | 1021.4 |
| 20260510133024 | 53 | 84 | 0.0 | 0.0 | 0.11 | 0.11 | 0.11 | 84 | 1021.2 |
| 20260510132508 | 54 | 84 | 0.0 | 1.0 | 0.10 | 0.10 | 0.10 | 83 | 1021.1 |
| 20260510132009 | 54 | 84 | 0.0 | 4.0 | 0.08 | 0.08 | 0.08 | 81 | 1021.0 |
| 20260510131525 | 55 | 84 | 0.0 | 4.0 | 0.06 | 0.06 | 0.06 | 79 | 1021.1 |
| 20260510131012 | 55 | 91 | 0.0 | 2.0 | 0.04 | 0.04 | 0.04 | 79 | 1021.1 |
| 20260510130510 | 56 | 91 | 0.0 | 2.0 | 0.02 | 0.02 | 0.02 | 76 | 1021.1 |
| 20260510130029 | 56 | 91 | 0.0 | 2.0 | 0.01 | 0.01 | 0.01 | 72 | 1020.9 |
| 20260510125510 | 57 | 91 | 0.0 | 2.0 | 0.00 | 0.00 | 0.00 | 70 | 1020.6 |
| 20260510125007 | 57 | 91 | 0.0 | 4.0 | 0.00 | 0.00 | 0.00 | 68 | 1020.4 |
| 20260510124518 | 58 | 91 | 0.0 | 4.0 | 0.00 | 0.00 | 0.00 | 67 | 1020.4 |
| 20260510124006 | 58 | 74 | 0.0 | 7.0 | 0.00 | 0.00 | 0.00 | 66 | 1020.1 |
| 20260510123506 | 58 | 44 | 0.0 | 8.0 | 0.00 | 0.00 | 0.00 | 63 | 1020.0 |
| 20260510123023 | 59 | 77 | 0.0 | 8.0 | 0.00 | 0.00 | 0.00 | 64 | 1019.9 |
| 20260510122508 | 59 | 88 | 1.0 | 8.0 | 0.00 | 0.00 | 0.00 | 64 | 1019.7 |
| 20260510122010 | 59 | 11 | 2.0 | 9.0 | 0.00 | 0.00 | 0.00 | 63 | 1019.4 |
| 20260510121527 | 59 | 82 | 1.0 | 10.0 | 0.00 | 0.00 | 0.00 | 63 | 1018.9 |
| 20260510121010 | 59 | 79 | 3.0 | 10.0 | 0.00 | 0.00 | 0.00 | 62 | 1018.7 |
| 20260510120508 | 59 | 80 | 1.0 | 7.0 | 0.00 | 0.00 | 0.00 | 63 | 1018.4 |
| 20260510120037 | 59 | 80 | 2.0 | 5.0 | 0.00 | 0.00 | 0.00 | 63 | 1018.1 |
| 20260510115513 | 60 | 9 | 2.0 | 10.0 | 0.00 | 0.00 | 0.00 | 63 | 1017.8 |
| 20260510115010 | 60 | 74 | 3.0 | 11.0 | 0.00 | 0.00 | 0.00 | 62 | 1017.7 |
| 20260510114527 | 60 | 66 | 4.0 | 11.0 | 0.00 | 0.00 | 0.00 | 62 | 1017.6 |
| 20260510114011 | 60 | 69 | 2.0 | 11.0 | 0.00 | 0.00 | 0.00 | 63 | 1017.5 |
| 20260510113506 | 60 | 54 | 4.0 | 11.0 | 0.00 | 0.00 | 0.00 | 63 | 1017.2 |
| 20260510113018 | 60 | 74 | 6.0 | 11.0 | 0.00 | 0.00 | 0.00 | 62 | 1017.0 |
| 20260510112511 | 60 | 76 | 3.0 | 10.0 | 0.00 | 0.00 | 0.00 | 63 | 1016.7 |
| 20260510112012 | 60 | 69 | 2.0 | 9.0 | 0.00 | 0.00 | 0.00 | 63 | 1016.7 |
| 20260510111526 | 60 | 59 | 3.0 | 9.0 | 0.00 | 0.00 | 0.00 | 64 | 1016.3 |
| 20260510111003 | 60 | 61 | 2.0 | 10.0 | 0.00 | 0.00 | 0.00 | 63 | 1016.2 |
| 20260510110505 | 60 | 61 | 3.0 | 10.0 | 0.00 | 0.00 | 0.00 | 63 | 1016.1 |
| 20260510110011 | 60 | 91 | 2.0 | 10.0 | 0.00 | 0.00 | 0.00 | 62 | 1015.9 |
| 20260510105504 | 60 | 88 | 4.0 | 11.0 | 0.00 | 0.00 | 0.00 | 62 | 1015.7 |
| 20260510105004 | 60 | 80 | 4.0 | 11.0 | 0.00 | 0.00 | 0.00 | 62 | 1015.7 |
| 20260510104512 | 61 | 64 | 5.0 | 9.0 | 0.00 | 0.00 | 0.00 | 62 | 1015.8 |
| 20260510104004 | 61 | 65 | 3.0 | 8.0 | 0.00 | 0.00 | 0.00 | 62 | 1015.9 |
| 20260510103504 | 61 | 67 | 3.0 | 10.0 | 0.00 | 0.00 | 0.00 | 62 | 1015.8 |
| 20260510103016 | 61 | 59 | 4.0 | 10.0 | 0.00 | 0.00 | 0.00 | 61 | 1015.7 |
| 20260510102504 | 61 | 47 | 3.0 | 7.0 | 0.00 | 0.00 | 0.00 | 61 | 1015.7 |
| 20260510102007 | 61 | 80 | 2.0 | 8.0 | 0.00 | 0.00 | 0.00 | 61 | 1015.6 |
| 20260510101522 | 61 | 68 | 4.0 | 10.0 | 0.00 | 0.00 | 0.00 | 61 | 1015.4 |
| 20260510101008 | 61 | 71 | 4.0 | 11.0 | 0.00 | 0.00 | 0.00 | 61 | 1015.3 |
| 20260510100503 | 61 | 81 | 4.0 | 14.0 | 0.00 | 0.00 | 0.00 | 61 | 1015.3 |
| 20260510100004 | 61 | 61 | 3.0 | 14.0 | 0.00 | 0.00 | 0.00 | 61 | 1015.2 |
| 20260510095503 | 61 | 70 | 3.0 | 8.0 | 0.00 | 0.00 | 0.00 | 62 | 1015.2 |
| 20260510095003 | 61 | 58 | 3.0 | 8.0 | 0.00 | 0.00 | 0.00 | 61 | 1015.1 |
| 20260510094519 | 61 | 69 | 3.0 | 9.0 | 0.00 | 0.00 | 0.00 | 62 | 1015.1 |
| 20260510094007 | 61 | 42 | 1.0 | 9.0 | 0.00 | 0.00 | 0.00 | 62 | 1015.0 |
| 20260510093504 | 61 | 90 | 3.0 | 9.0 | 0.00 | 0.00 | 0.00 | 62 | 1014.8 |
| 20260510093012 | 61 | 88 | 2.0 | 9.0 | 0.00 | 0.00 | 0.00 | 62 | 1014.8 |
| 20260510092507 | 61 | 66 | 2.0 | 9.0 | 0.00 | 0.00 | 0.00 | 62 | 1014.7 |
| 20260510092003 | 61 | 66 | 3.0 | 10.0 | 0.00 | 0.00 | 0.00 | 62 | 1014.5 |
| 20260510091522 | 61 | 68 | 3.0 | 10.0 | 0.00 | 0.00 | 0.00 | 62 | 1014.5 |
| 20260510091004 | 62 | 60 | 3.0 | 8.0 | 0.00 | 0.00 | 0.00 | 63 | 1014.5 |
| 20260510090507 | 62 | 62 | 3.0 | 8.0 | 0.00 | 0.00 | 0.00 | 63 | 1014.5 |
| 20260510090020 | 62 | 61 | 3.0 | 8.0 | 0.00 | 0.00 | 0.00 | 63 | 1014.4 |
| 20260510085506 | 62 | 62 | 3.0 | 10.0 | 0.00 | 0.00 | 0.00 | 63 | 1014.5 |
| 20260510085006 | 62 | 69 | 3.0 | 10.0 | 0.00 | 0.00 | 0.00 | 63 | 1014.4 |
| 20260510084506 | 62 | 78 | 2.0 | 9.0 | 0.00 | 0.00 | 0.00 | 63 | 1014.3 |
| 20260510084002 | 62 | 67 | 3.0 | 7.0 | 0.00 | 0.00 | 0.00 | 63 | 1014.4 |
| 20260510083506 | 62 | 38 | 2.0 | 8.0 | 0.00 | 0.00 | 0.00 | 64 | 1014.4 |
| 20260510083010 | 62 | 55 | 3.0 | 8.0 | 0.00 | 0.00 | 0.00 | 64 | 1014.5 |
| 20260510082504 | 62 | 57 | 3.0 | 7.0 | 0.00 | 0.00 | 0.00 | 65 | 1014.4 |
| 20260510082005 | 62 | 68 | 2.0 | 4.0 | 0.00 | 0.00 | 0.00 | 65 | 1014.4 |
| 20260510081514 | 62 | 64 | 1.0 | 4.0 | 0.00 | 0.00 | 0.00 | 66 | 1014.2 |
| 20260510081006 | 62 | 79 | 0.0 | 3.0 | 0.00 | 0.00 | 0.00 | 65 | 1014.2 |
| 20260510080505 | 62 | 79 | 0.0 | 4.0 | 0.00 | 0.00 | 0.00 | 65 | 1014.1 |
| 20260510080017 | 62 | 79 | 0.0 | 4.0 | 0.00 | 0.00 | 0.00 | 65 | 1013.9 |
| 20260510075509 | 62 | 75 | 0.0 | 2.0 | 0.00 | 0.00 | 0.00 | 65 | 1013.8 |
| 20260510075007 | 62 | 75 | 0.0 | 2.0 | 0.00 | 0.00 | 0.00 | 65 | 1013.8 |
| 20260510074526 | 62 | 75 | 0.0 | 0.0 | 0.00 | 0.00 | 0.00 | 65 | 1013.8 |
| 20260510074006 | 63 | 75 | 0.0 | 2.0 | 0.00 | 0.00 | 0.00 | 65 | 1013.9 |
| 20260510073507 | 63 | 75 | 0.0 | 2.0 | 0.00 | 0.00 | 0.00 | 64 | 1013.9 |
| 20260510073005 | 63 | 75 | 0.0 | 2.0 | 0.00 | 0.00 | 0.00 | 64 | 1013.9 |
| 20260510072503 | 63 | 75 | 0.0 | 2.0 | 0.00 | 0.00 | 0.00 | 63 | 1014.0 |
| 20260510072002 | 63 | 75 | 0.0 | 3.0 | 0.00 | 0.00 | 0.00 | 62 | 1013.9 |
| 20260510071512 | 64 | 75 | 0.0 | 3.0 | 0.00 | 0.00 | 0.00 | 62 | 1013.8 |
| 20260510071004 | 64 | 62 | 0.0 | 2.0 | 0.00 | 0.00 | 0.00 | 61 | 1013.7 |
| 20260510070503 | 64 | 62 | 0.0 | 2.0 | 0.00 | 0.00 | 0.00 | 61 | 1013.8 |
| 20260510070015 | 64 | 62 | 0.0 | 2.0 | 0.00 | 0.00 | 0.00 | 61 | 1013.7 |
| 20260510065506 | 65 | 62 | 0.0 | 3.0 | 0.00 | 0.00 | 0.00 | 60 | 1013.6 |
| 20260510065006 | 65 | 62 | 0.0 | 3.0 | 0.00 | 0.00 | 0.00 | 61 | 1013.6 |
| 20260510064520 | 65 | 63 | 0.0 | 3.0 | 0.00 | 0.00 | 0.00 | 60 | 1013.6 |
| 20260510064010 | 65 | 77 | 0.0 | 2.0 | 0.00 | 0.00 | 0.00 | 60 | 1013.6 |
| 20260510063507 | 64 | 59 | 0.0 | 2.0 | 0.00 | 0.00 | 0.00 | 61 | 1013.7 |
| 20260510063027 | 64 | 59 | 0.0 | 2.0 | 0.00 | 0.00 | 0.00 | 61 | 1013.7 |
| 20260510062507 | 64 | 61 | 0.0 | 0.0 | 0.00 | 0.00 | 0.00 | 61 | 1013.5 |
| 20260510062010 | 65 | 61 | 0.0 | 0.0 | 0.00 | 0.00 | 0.00 | 60 | 1013.3 |
| 20260510061513 | 65 | 61 | 0.0 | 0.0 | 0.00 | 0.00 | 0.00 | 59 | 1013.2 |
| 20260510061003 | 65 | 61 | 0.0 | 0.0 | 0.00 | 0.00 | 0.00 | 59 | 1013.1 |
| 20260510060503 | 65 | 61 | 0.0 | 0.0 | 0.00 | 0.00 | 0.00 | 58 | 1013.1 |
| 20260510060030 | 66 | 61 | 0.0 | 2.0 | 0.00 | 0.00 | 0.00 | 58 | 1012.9 |
| 20260510055507 | 66 | 61 | 0.0 | 2.0 | 0.00 | 0.00 | 0.00 | 58 | 1012.9 |
| 20260510055006 | 66 | 61 | 0.0 | 0.0 | 0.00 | 0.00 | 0.00 | 61 | 1012.9 |
| 20260510054518 | 66 | 61 | 0.0 | 0.0 | 0.00 | 0.00 | 0.00 | 60 | 1012.8 |
| 20260510054004 | 66 | 61 | 0.0 | 0.0 | 0.00 | 0.00 | 0.00 | 57 | 1012.5 |
| 20260510053507 | 66 | 61 | 0.0 | 0.0 | 0.00 | 0.00 | 0.00 | 59 | 1012.4 |
| 20260510053022 | 66 | 61 | 0.0 | 0.0 | 0.00 | 0.00 | 0.00 | 57 | 1012.3 |
| 20260510052507 | 66 | 61 | 0.0 | 3.0 | 0.00 | 0.00 | 0.00 | 59 | 1012.2 |
| 20260510052009 | 65 | 61 | 0.0 | 3.0 | 0.00 | 0.00 | 0.00 | 58 | 1012.1 |
| 20260510051526 | 64 | 61 | 0.0 | 3.0 | 0.00 | 0.00 | 0.00 | 61 | 1012.0 |
| 20260510051011 | 64 | 269 | 0.0 | 0.0 | 0.00 | 0.00 | 0.00 | 67 | 1011.9 |
| 20260510050513 | 64 | 269 | 0.0 | 0.0 | 0.00 | 0.00 | 0.00 | 62 | 1011.7 |
| 20260510050008 | 64 | 269 | 0.0 | 0.0 | 0.00 | 0.00 | 0.00 | 62 | 1011.7 |
| 20260510045504 | 64 | 269 | 0.0 | 0.0 | 0.00 | 0.00 | 0.00 | 62 | 1011.7 |
| 20260510045007 | 64 | 269 | 0.0 | 0.0 | 0.00 | 0.00 | 0.00 | 62 | 1011.7 |
| 20260510044517 | 64 | 269 | 0.0 | 0.0 | 0.00 | 0.00 | 0.00 | 64 | 1011.8 |
| 20260510044006 | 64 | 269 | 0.0 | 0.0 | 0.00 | 0.00 | 0.00 | 64 | 1011.8 |
| 20260510043507 | 65 | 269 | 0.0 | 0.0 | 0.00 | 0.00 | 0.00 | 67 | 1011.9 |
| 20260510043021 | 65 | 269 | 0.0 | 0.0 | 0.00 | 0.00 | 0.00 | 68 | 1011.9 |
| 20260510042507 | 65 | 269 | 0.0 | 0.0 | 0.00 | 0.00 | 0.00 | 69 | 1012.1 |
| 20260510042006 | 65 | 269 | 0.0 | 0.0 | 0.00 | 0.00 | 0.00 | 69 | 1012.2 |
| 20260510041529 | 65 | 269 | 0.0 | 0.0 | 0.00 | 0.00 | 0.00 | 61 | 1012.3 |
| 20260510041007 | 66 | 269 | 0.0 | 0.0 | 0.00 | 0.00 | 0.00 | 59 | 1012.2 |
| 20260510040507 | 66 | 269 | 0.0 | 0.0 | 0.00 | 0.00 | 0.00 | 62 | 1012.1 |
| 20260510040026 | 66 | 269 | 0.0 | 0.0 | 0.00 | 0.00 | 0.00 | 67 | 1012.1 |
| 20260510035510 | 67 | 269 | 0.0 | 0.0 | 0.00 | 0.00 | 0.00 | 63 | 1012.1 |
| 20260510035009 | 67 | 269 | 0.0 | 0.0 | 0.00 | 0.00 | 0.00 | 61 | 1012.0 |
| 20260510034510 | 67 | 269 | 0.0 | 0.0 | 0.00 | 0.00 | 0.00 | 63 | 1012.0 |
| 20260510034004 | 67 | 269 | 0.0 | 0.0 | 0.00 | 0.00 | 0.00 | 58 | 1011.8 |
| 20260510033504 | 68 | 269 | 0.0 | 0.0 | 0.00 | 0.00 | 0.00 | 59 | 1011.8 |
| 20260510033004 | 68 | 269 | 0.0 | 0.0 | 0.00 | 0.00 | 0.00 | 60 | 1011.8 |
| 20260510032502 | 68 | 269 | 0.0 | 0.0 | 0.00 | 0.00 | 0.00 | 57 | 1011.7 |
| 20260510032002 | 69 | 269 | 0.0 | 0.0 | 0.00 | 0.00 | 0.00 | 56 | 1011.7 |
| 20260510031504 | 70 | 269 | 0.0 | 0.0 | 0.00 | 0.00 | 0.00 | 56 | 1011.6 |
| 20260510031003 | 71 | 269 | 0.0 | 0.0 | 0.00 | 0.00 | 0.00 | 55 | 1011.6 |
| 20260510030502 | 72 | 269 | 0.0 | 4.0 | 0.00 | 0.00 | 0.00 | 52 | 1011.8 |
| 20260510030006 | 72 | 269 | 0.0 | 4.0 | 0.00 | 0.00 | 0.00 | 46 | 1011.8 |
| 20260510025503 | 73 | 248 | 1.0 | 4.0 | 0.00 | 0.00 | 0.00 | 44 | 1011.3 |
| 20260510025005 | 73 | 155 | 0.0 | 3.0 | 0.00 | 0.00 | 0.00 | 43 | 1011.4 |
| 20260510024512 | 74 | 84 | 0.0 | 0.0 | 0.00 | 0.00 | 0.00 | 42 | 1012.1 |
| 20260510024004 | 74 | 84 | 0.0 | 0.0 | 0.00 | 0.00 | 0.00 | 41 | 1012.0 |
| 20260510023503 | 74 | 84 | 0.0 | 0.0 | 0.00 | 0.00 | 0.00 | 40 | 1011.9 |
| 20260510023030 | 74 | 84 | 0.0 | 2.0 | 0.00 | 0.00 | 0.00 | 41 | 1011.8 |
| 20260510022506 | 75 | 84 | 0.0 | 5.0 | 0.00 | 0.00 | 0.00 | 40 | 1011.9 |
| 20260510022008 | 75 | 84 | 0.0 | 5.0 | 0.00 | 0.00 | 0.00 | 40 | 1011.7 |
| 20260510021520 | 76 | 207 | 0.0 | 5.0 | 0.00 | 0.00 | 0.00 | 39 | 1011.8 |
| 20260510021003 | 76 | 194 | 0.0 | 7.0 | 0.00 | 0.00 | 0.00 | 38 | 1011.7 |
| 20260510020503 | 76 | 90 | 1.0 | 7.0 | 0.00 | 0.00 | 0.00 | 37 | 1011.7 |
| 20260510020005 | 76 | 254 | 0.0 | 7.0 | 0.00 | 0.00 | 0.00 | 37 | 1011.8 |
| 20260510015503 | 76 | 219 | 1.0 | 6.0 | 0.00 | 0.00 | 0.00 | 38 | 1011.8 |
| 20260510015002 | 76 | 252 | 0.0 | 4.0 | 0.00 | 0.00 | 0.00 | 37 | 1011.5 |
| 20260510014506 | 76 | 246 | 0.0 | 3.0 | 0.00 | 0.00 | 0.00 | 37 | 1011.1 |
| 20260510014003 | 75 | 268 | 0.0 | 3.0 | 0.00 | 0.00 | 0.00 | 36 | 1011.1 |
| 20260510013509 | 75 | 268 | 0.0 | 3.0 | 0.00 | 0.00 | 0.00 | 36 | 1011.0 |
| 20260510013013 | 75 | 242 | 0.0 | 2.0 | 0.00 | 0.00 | 0.00 | 37 | 1010.7 |
| 20260510012503 | 76 | 121 | 0.0 | 1.0 | 0.00 | 0.00 | 0.00 | 35 | 1010.4 |
| 20260510012004 | 76 | 121 | 0.0 | 2.0 | 0.00 | 0.00 | 0.00 | 35 | 1010.0 |
| 20260510011522 | 76 | 121 | 0.0 | 3.0 | 0.00 | 0.00 | 0.00 | 35 | 1009.7 |
| 20260510011012 | 76 | 263 | 0.0 | 3.0 | 0.00 | 0.00 | 0.00 | 34 | 1009.5 |
| 20260510010506 | 76 | 263 | 0.0 | 3.0 | 0.00 | 0.00 | 0.00 | 35 | 1009.1 |
| 20260510010025 | 77 | 163 | 0.0 | 3.0 | 0.00 | 0.00 | 0.00 | 34 | 1009.1 |
| 20260510005503 | 77 | 245 | 0.0 | 3.0 | 0.00 | 0.00 | 0.00 | 34 | 1008.9 |
| 20260510005004 | 78 | 245 | 0.0 | 2.0 | 0.00 | 0.00 | 0.00 | 34 | 1008.8 |
| 20260510004505 | 78 | 245 | 0.0 | 4.0 | 0.00 | 0.00 | 0.00 | 33 | 1008.6 |
| 20260510004003 | 78 | 186 | 1.0 | 4.0 | 0.00 | 0.00 | 0.00 | 33 | 1008.5 |
| 20260510003504 | 79 | 246 | 0.0 | 3.0 | 0.00 | 0.00 | 0.00 | 32 | 1008.3 |
| 20260510003006 | 80 | 273 | 0.0 | 3.0 | 0.00 | 0.00 | 0.00 | 30 | 1008.2 |
| 20260510002504 | 80 | 167 | 0.0 | 4.0 | 0.00 | 0.00 | 0.00 | 30 | 1008.1 |
| 20260510002003 | 80 | 281 | 0.0 | 6.0 | 0.00 | 0.00 | 0.00 | 29 | 1008.0 |
| 20260510001516 | 81 | 290 | 1.0 | 6.0 | 0.00 | 0.00 | 0.00 | 28 | 1008.0 |
| 20260510001009 | 81 | 276 | 0.0 | 6.0 | 0.00 | 0.00 | 0.00 | 29 | 1007.9 |
| 20260510000505 | 82 | 293 | 1.0 | 4.0 | 0.00 | 0.00 | 0.00 | 27 | 1007.9 |
| 20260510000017 | 83 | 268 | 0.0 | 4.0 | 0.00 | 0.00 | 0.00 | 26 | 1007.9 |
| 20260509235504 | 83 | 280 | 1.0 | 4.0 | 0.00 | 0.00 | 0.00 | 25 | 1007.9 |
| 20260509235007 | 84 | 205 | 0.0 | 3.0 | 0.00 | 0.00 | 0.00 | 26 | 1008.0 |
| 20260509234524 | 84 | 265 | 0.0 | 6.0 | 0.00 | 0.00 | 0.00 | 23 | 1008.1 |
| 20260509234004 | 85 | 266 | 2.0 | 6.0 | 0.00 | 0.00 | 0.00 | 24 | 1008.2 |
| 20260509233505 | 85 | 297 | 1.0 | 8.0 | 0.00 | 0.00 | 0.00 | 26 | 1008.2 |
| 20260509233005 | 85 | 275 | 1.0 | 8.0 | 0.00 | 0.00 | 0.00 | 24 | 1008.2 |
| 20260509232504 | 85 | 209 | 1.0 | 7.0 | 0.00 | 0.00 | 0.00 | 24 | 1008.3 |
| 20260509232004 | 86 | 265 | 2.0 | 4.0 | 0.00 | 0.00 | 0.00 | 21 | 1008.3 |
| 20260509231512 | 86 | 345 | 0.0 | 9.0 | 0.00 | 0.00 | 0.00 | 23 | 1008.3 |
| 20260509231004 | 85 | 217 | 2.0 | 9.0 | 0.00 | 0.00 | 0.00 | 21 | 1008.3 |
| 20260509230504 | 85 | 139 | 1.0 | 8.0 | 0.00 | 0.00 | 0.00 | 21 | 1008.2 |
| 20260509230014 | 85 | 222 | 1.0 | 8.0 | 0.00 | 0.00 | 0.00 | 24 | 1008.2 |
| 20260509225505 | 86 | 184 | 1.0 | 6.0 | 0.00 | 0.00 | 0.00 | 23 | 1008.2 |
| 20260509225004 | 87 | 299 | 1.0 | 6.0 | 0.00 | 0.00 | 0.00 | 22 | 1008.1 |
| 20260509224520 | 87 | 297 | 1.0 | 6.0 | 0.00 | 0.00 | 0.00 | 20 | 1008.1 |
| 20260509224008 | 87 | 250 | 1.0 | 6.0 | 0.00 | 0.00 | 0.00 | 21 | 1008.2 |
| 20260509223511 | 87 | 246 | 1.0 | 9.0 | 0.00 | 0.00 | 0.00 | 21 | 1008.2 |
| 20260509223026 | 87 | 319 | 0.0 | 9.0 | 0.00 | 0.00 | 0.00 | 24 | 1008.2 |
| 20260509222503 | 87 | 271 | 1.0 | 9.0 | 0.00 | 0.00 | 0.00 | 21 | 1008.0 |
| 20260509222005 | 87 | 250 | 2.0 | 7.0 | 0.00 | 0.00 | 0.00 | 22 | 1008.0 |
| 20260509221507 | 88 | 253 | 1.0 | 9.0 | 0.00 | 0.00 | 0.00 | 22 | 1008.0 |
| 20260509221005 | 87 | 184 | 2.0 | 9.0 | 0.00 | 0.00 | 0.00 | 21 | 1007.9 |
| 20260509220504 | 87 | 261 | 1.0 | 8.0 | 0.00 | 0.00 | 0.00 | 21 | 1007.9 |
| 20260509220013 | 87 | 269 | 2.0 | 8.0 | 0.00 | 0.00 | 0.00 | 22 | 1007.9 |
| 20260509215505 | 87 | 161 | 1.0 | 4.0 | 0.00 | 0.00 | 0.00 | 20 | 1007.9 |
| 20260509215005 | 88 | 257 | 2.0 | 6.0 | 0.00 | 0.00 | 0.00 | 20 | 1007.9 |
| 20260509214518 | 88 | 223 | 0.0 | 6.0 | 0.00 | 0.00 | 0.00 | 20 | 1008.0 |
| 20260509214007 | 88 | 38 | 1.0 | 7.0 | 0.00 | 0.00 | 0.00 | 19 | 1008.0 |
| 20260509213508 | 88 | 223 | 1.0 | 7.0 | 0.00 | 0.00 | 0.00 | 21 | 1008.0 |
| 20260509213020 | 87 | 254 | 1.0 | 7.0 | 0.00 | 0.00 | 0.00 | 23 | 1008.1 |
| 20260509212507 | 87 | 77 | 0.0 | 5.0 | 0.00 | 0.00 | 0.00 | 21 | 1008.1 |
| 20260509212011 | 87 | 266 | 1.0 | 7.0 | 0.00 | 0.00 | 0.00 | 21 | 1008.3 |
| 20260509211548 | 87 | 44 | 0.0 | 7.0 | 0.00 | 0.00 | 0.00 | 21 | 1008.3 |
| 20260509211004 | 87 | 265 | 2.0 | 7.0 | 0.00 | 0.00 | 0.00 | 21 | 1008.3 |
| 20260509210504 | 88 | 276 | 2.0 | 7.0 | 0.00 | 0.00 | 0.00 | 20 | 1008.4 |
| 20260509210008 | 88 | 259 | 2.0 | 10.0 | 0.00 | 0.00 | 0.00 | 22 | 1008.5 |
| 20260509205504 | 87 | 277 | 2.0 | 10.0 | 0.00 | 0.00 | 0.00 | 22 | 1008.6 |
| 20260509205007 | 87 | 252 | 1.0 | 9.0 | 0.00 | 0.00 | 0.00 | 22 | 1008.6 |
| 20260509204513 | 87 | 175 | 2.0 | 7.0 | 0.00 | 0.00 | 0.00 | 23 | 1008.7 |
| 20260509204008 | 87 | 211 | 1.0 | 7.0 | 0.00 | 0.00 | 0.00 | 21 | 1008.7 |
| 20260509203506 | 88 | 242 | 2.0 | 7.0 | 0.00 | 0.00 | 0.00 | 20 | 1008.8 |
| 20260509203034 | 88 | 205 | 1.0 | 8.0 | 0.00 | 0.00 | 0.00 | 20 | 1008.8 |
| 20260509202510 | 88 | 248 | 2.0 | 8.0 | 0.00 | 0.00 | 0.00 | 22 | 1008.9 |
| 20260509202007 | 88 | 239 | 2.0 | 8.0 | 0.00 | 0.00 | 0.00 | 21 | 1009.0 |
| 20260509201524 | 88 | 267 | 2.0 | 8.0 | 0.00 | 0.00 | 0.00 | 23 | 1009.0 |
| 20260509201012 | 88 | 344 | 2.0 | 8.0 | 0.00 | 0.00 | 0.00 | 22 | 1009.1 |
| 20260509200509 | 88 | 130 | 1.0 | 8.0 | 0.00 | 0.00 | 0.00 | 21 | 1009.2 |
| 20260509200026 | 87 | 288 | 2.0 | 8.0 | 0.00 | 0.00 | 0.00 | 21 | 1009.3 |
| 20260509195504 | 87 | 277 | 1.0 | 8.0 | 0.00 | 0.00 | 0.00 | 20 | 1009.2 |
| 20260509195004 | 88 | 261 | 2.0 | 5.0 | 0.00 | 0.00 | 0.00 | 23 | 1009.4 |
| 20260509194511 | 88 | 15 | 1.0 | 5.0 | 0.00 | 0.00 | 0.00 | 21 | 1009.4 |
| 20260509194006 | 88 | 5 | 2.0 | 6.0 | 0.00 | 0.00 | 0.00 | 21 | 1009.5 |
| 20260509193504 | 87 | 327 | 0.0 | 8.0 | 0.00 | 0.00 | 0.00 | 22 | 1009.5 |
| 20260509193016 | 87 | 242 | 2.0 | 10.0 | 0.00 | 0.00 | 0.00 | 23 | 1009.5 |
| 20260509192504 | 87 | 271 | 2.0 | 10.0 | 0.00 | 0.00 | 0.00 | 22 | 1009.5 |